FLOCK 1C-9

Last updated on Wed Feb 14 2018 16:18:44 GMT+0000 (Coordinated Universal Time)

1 40035U 14033AB 18045.36387005 -.00000194 00000-0 -14438-4 0 9993 2 40035 97.9243 323.2381 0011002 213.6886 146.3640 14.89260408198541

Satellite not in orbit

FLOCK 1C-9